This is the latest recevied weather packets stored in our database for station/object F4ETJ-1. If no packets are shown the sender has not sent any weather packets the latest 10 day(s).
| Time | Temp. | Humidity | Pressure | Rain* | Wind** | Luminosity | Snow |
|---|---|---|---|---|---|---|---|
| 1787631883 | 18.33° C | 94% | 1006.9 hPa | 1.78 mm | - | - | - |
| 1787631522 | 18.33° C | 94% | 1007 hPa | 2.03 mm | - | - | - |
| 1787631162 | 18.33° C | 94% | 1007 hPa | 2.29 mm | - | - | - |
| 1787630802 | 18.33° C | 94% | 1007.1 hPa | 2.54 mm | - | - | - |
| 1787630441 | 18.33° C | 93% | 1007 hPa | 3.05 mm | - | - | - |
| 1787630081 | 18.33° C | 93% | 1006.9 hPa | 3.81 mm | - | - | - |
| 1787629720 | 18.33° C | 93% | 1006.8 hPa | 5.08 mm | - | - | - |
| 1787629360 | 18.33° C | 93% | 1006.7 hPa | 5.59 mm | - | - | - |
| 1787629000 | 18.33° C | 93% | 1006.7 hPa | 5.84 mm | - | - | - |
| 1787628639 | 18.33° C | 93% | 1006.8 hPa | 6.6 mm | - | - | - |
| 1787628279 | 18.33° C | 93% | 1006.8 hPa | 7.37 mm | - | - | - |
| 1787627919 | 18.33° C | 93% | 1006.9 hPa | 7.37 mm | - | - | - |
| 1787627558 | 18.89° C | 92% | 1007 hPa | 7.11 mm | - | - | - |
| 1787627198 | 18.89° C | 92% | 1007.2 hPa | 6.6 mm | - | - | - |
| 1787626838 | 18.89° C | 92% | 1007.1 hPa | 6.1 mm | - | - | - |
| 1787626478 | 18.89° C | 91% | 1007.1 hPa | 5.59 mm | - | - | - |
| 1787626117 | 18.89° C | 90% | 1007.3 hPa | 4.83 mm | - | - | - |
| 1787625757 | 18.89° C | 90% | 1007.2 hPa | 4.32 mm | - | - | - |
| 1787625396 | 19.44° C | 90% | 1007.1 hPa | 4.06 mm | - | - | - |
| 1787625036 | 19.44° C | 89% | 1007.3 hPa | 3.05 mm | - | - | - |
| 1787624676 | 19.44° C | 88% | 1007.3 hPa | 2.29 mm | - | - | - |
| 1787624315 | 20° C | 87% | 1007.1 hPa | 1.78 mm | - | - | - |
| 1787623955 | 20° C | 86% | 1006.9 hPa | 1.52 mm | - | - | - |
| 1787623595 | 20° C | 86% | 1006.8 hPa | 1.27 mm | - | - | - |
| 1787623234 | 20.56° C | 84% | 1006.7 hPa | 1.02 mm | - | - | - |
* Rain latest hour (hover to see other rain measurements)
** Current wind speed in m/s (hover to see current wind gust speed)